カタリナ彗星

459P/Catalina (2023)

English version
Home page
Updated on July 27, 2024

---------------------------------------------------------------------

・ プロフィール

・ 写真集

・ 軌道要素

Epoch 2024 Mar. 31.0 TT = JDT 2460400.5
T 2023 Feb. 21.43306 TT                                 Rudenko
q   1.3681164            (2000.0)            P               Q
n   0.16901684     Peri.  205.20183     -0.20792996     -0.97054839
a   3.2397840      Node   256.98950     +0.91725172     -0.15027311
e   0.5777137      Incl.    7.17294     +0.33972697     -0.18829184
P   5.83
>From 647 observations 2017 Jan. 3-2024 June 2, mean residual 0".5.

・ 星図

・ 光度変化

        H = 16.0  G = 0.15                [    ,-140]  (              〜2022年10月 4日)
        m1 = 15.2 + 5 logΔ + 10.0 log r  [-140, 170]  (2022年10月 4日〜2023年 8月10日)
        H = 16.0  G = 0.15                [ 170,    ]  (2023年 8月10日〜              )

---------------------------------------------------------------------

軌道要素はM.P.E.C. 2024-L77に掲載されたものです。
星図はステラナビゲータ Ver.11 (アストロアーツ) で作成したものです。
光度グラフはComet for Windowsで作成したものです。

---------------------------------------------------------------------

Copyright(C) Seiichi Yoshida (comet@aerith.net). All rights reserved.